Regional Weather Roundup
Issued by NWS

Home | Current Version | Previous Version | Text Only | Print | Product List | Glossary On
Versions: 1 2 3 4 5 6 7 8 9 10 11 12 13 14 15 16 17 18 19 20 21 22 23 24 25 26 27 28 29 30 31 32 33 34 35 36 37 38 39 40 41 42 43 44 45 46 47 48 49 50
000
ASUS43 KTOP 211808
RWRKS

WEATHER ROUNDUP FOR KANSAS
NATIONAL WEATHER SERVICE GOODLAND KS
1200 PM CST SUN DEC 21 2014

NOTE:  "FAIR" INDICATES FEW OR NO CLOUDS BELOW 12,000 FEET WITH NO
SIGNIFICANT WEATHER AND/OR OBSTRUCTIONS TO VISIBILITY.

KSZ001>006-013>018-027>032-041>047-211900-
NORTHWEST KANSAS

CITY           SKY/WX    TMP DP  RH WIND       PRES   REMARKS
GOODLAND       MOSUNNY   47  31  53 S10       29.67F
6HR MIN TEMP:  24; 6HR MAX TEMP:  47;

HAYS           CLOUDY    43  34  70 S16       29.77F
HILL CITY      CLOUDY    42  37  82 S20G25    29.73F
6HR MIN TEMP:  31; 6HR MAX TEMP:  42;

RUSSELL        CLOUDY    41  40  96 S17       29.77F FOG
6HR MIN TEMP:  36; 6HR MAX TEMP:  41;

$$

KSZ061>065-074>080-084>089-211900-
SOUTHWEST KANSAS

CITY           SKY/WX    TMP DP  RH WIND       PRES   REMARKS
DODGE CITY     CLOUDY    42  37  82 S17       29.76F
6HR MIN TEMP:  38; 6HR MAX TEMP:  42;

ELKHART          N/A    N/A N/A N/A MISG        N/A
GARDEN CITY    CLOUDY    42  36  79 S20       29.72F
6HR MIN TEMP:  33; 6HR MAX TEMP:  42;

GREAT BEND     CLOUDY    41  36  81 S18       29.80F
LIBERAL        CLOUDY    43  36  75 S13       29.77F
PRATT          FOG       39  37  93 S15G21    29.82F VSB 1/2 WCI  31
$$

KSZ066>073-081>083-090>101-211900-
SOUTHEAST KANSAS

CITY           SKY/WX    TMP DP  RH WIND       PRES   REMARKS
CHANUTE        CLOUDY    45  42  89 S16       29.96F
6HR MIN TEMP:  40; 6HR MAX TEMP:  45;

COFFEYVILLE    CLOUDY    46  42  86 S14G23    29.97F
6HR MIN TEMP:  41; 6HR MAX TEMP:  46;

HUTCHINSON     CLOUDY    42  39  89 S21G28    29.86F FOG
6HR MIN TEMP:  40; 6HR MAX TEMP:  42;

MEDICINE LODGE   N/A     42  41  96 S14G20    29.83F
NEWTON         CLOUDY    41  36  81 S14       29.88F VSB 1
PARSONS        CLOUDY    46  42  86 S9G20     29.97F
6HR MIN TEMP:  41; 6HR MAX TEMP:  46;

WICHITA INTL   DRIZZLE   43  40  89 S15       29.87F FOG
6HR MIN TEMP:  41; 6HR MAX TEMP:  43; 6HR PCP: TRACE;

WICHITA JABRA  LGT RAIN  42  40  92 S15       29.87F FOG
6HR MIN TEMP:  40; 6HR MAX TEMP:  42; 6HR PCP: TRACE;

WICHITA MCCONL CLOUDY    42  41  95 SE14      29.88F
WINFIELD       CLOUDY    45  42  89 S17       29.90F
6HR MIN TEMP:  40; 6HR MAX TEMP:  45; 6HR PCP: TRACE;

$$

KSZ007>012-019>026-033>040-048>060-102>105-211900-
NORTHEAST KANSAS

CITY           SKY/WX    TMP DP  RH WIND       PRES   REMARKS
CONCORDIA      CLOUDY    41  40  96 S16G24    29.81F
6HR MIN TEMP:  35; 6HR MAX TEMP:  41;

EMPORIA        CLOUDY    41  39  93 S16       29.90F
6HR MIN TEMP:  38; 6HR MAX TEMP:  41;

LAWRENCE       CLOUDY    43  38  82 S13       29.94F
6HR MIN TEMP:  38; 6HR MAX TEMP:  43;

MANHATTAN      CLOUDY    43  39  86 S15G22    29.88F
6HR MIN TEMP:  40; 6HR MAX TEMP:  43;

MARYSVILLE     CLOUDY    41  37  87 S14G20    29.85F
OLATHE IND     CLOUDY    41  39  93 S14       29.95F
6HR MIN TEMP:  37; 6HR MAX TEMP:  41;

OLATHE EXE     CLOUDY    42  39  89 S13       29.95F
6HR MIN TEMP:  36; 6HR MAX TEMP:  42;

SALINA         CLOUDY    43  39  86 S15G25    29.85F
6HR MIN TEMP:  40; 6HR MAX TEMP:  43;

TOPEKA BILLARD CLOUDY   N/A N/A N/A S12       29.91F
TOPEKA FORBES  CLOUDY    44  39  82 S15       29.90F
6HR MIN TEMP:  40; 6HR MAX TEMP:  44;

$$


USA.gov is the U.S. government's official web portal to all federal, state and local government web resources and services.